Probability
87 100 100 100 100 100 100 100 100 100 100 100 100 100 100 100 100 100 100 100 100 100 100 100 100 100 100 100 100 100 100 100 100 100 100 100 100 100 100 100 100 100 100
84 100 100 100 100 100 100 100 100 100 100 100 100 100 100 100 100 100 100 100 100 100 100 100 100 100 100 100 100 100 100 100 100 100 100 100 100 100 100 100 100 100 100
90 100 100 100 100 100 100 100 100 100 100 100 100 100 100 100 100 100 100 100 100 100 100 100 100 90 90 90 97 100 100 100 100 100 90 87 100 100 100 100 100 100 100
100 100 100 100 100 100 100 100 100 100 100 100 100 100 100 100 100 100 100 100 100 100 97 94 90 81 74 81 81 90 90 97 100 94 65 81 87 100 100 100 100 100 100
100 100 100 100 100 100 100 100 100 100 100 100 100 100 100 100 100 100 100 100 100 97 97 87 58 48 48 52 61 68 84 84 90 52 39 48 71 94 100 100 100 100 100
100 100 100 100 100 100 100 100 100 100 100 100 100 100 100 100 100 100 100 100 97 94 90 68 39 32 29 29 29 32 42 58 32 6 39 55 65 81 100 100 100 100 100
100 100 100 100 100 100 100 100 100 100 100 100 100 100 100 100 100 100 100 100 97 94 90 52 32 29 16 16 19 23 26 26 0 6 26 48 68 81 97 100 100 100 100
100 100 100 100 100 100 100 100 100 100 100 100 100 100 100 100 100 100 100 100 97 94 81 58 19 19 19 16 16 26 26 23 13 13 23 39 74 81 97 97 100 100 100
100 100 100 100 100 100 100 100 100 100 100 100 100 100 100 100 100 100 100 100 97 90 81 58 39 23 26 23 23 23 26 19 0 6 16 39 74 87 97 97 100 100 100
87 100 100 100 100 100 100 100 100 100 100 100 100 100 100 100 100 100 100 100 97 90 87 74 65 39 35 26 26 23 26 23 0 0 6 52 77 94 94 94 94 100 97
61 100 100 100 100 100 100 100 100 100 100 100 100 100 100 100 100 100 100 100 97 90 90 81 77 68 61 48 39 39 16 3 0 0 13 68 90 90 94 94 90 87 87
45 61 90 97 100 100 100 100 100 100 100 100 100 100 100 81 84 97 100 100 100 97 94 94 87 84 61 19 6 10 3 0 0 6 29 81 90 94 90 87 84 77 71
39 45 68 84 90 94 94 100 100 100 100 94 90 97 77 35 45 90 74 97 100 97 94 90 87 68 29 10 0 0 0 0 3 3 32 74 84 84 77 74 65 71 65
55 42 48 52 65 55 84 87 90 84 77 65 81 74 52 16 16 35 45 87 77 55 42 10 6 10 3 0 0 0 0 0 0 3 29 65 74 77 77 68 58 52 45
77 61 58 55 42 48 74 61 74 77 45 39 52 68 35 16 26 32 42 39 39 19 10 3 3 0 0 0 0 3 3 0 0 0 13 61 74 71 65 61 55 48 42
81 81 71 71 61 65 81 81 74 74 65 39 48 68 45 23 29 32 26 23 16 3 3 3 3 3 0 0 0 0 0 0 0 0 0 23 52 58 58 42 26 19 19
84 74 94 84 84 87 100 90 94 94 87 48 52 68 55 29 26 29 16 16 6 3 3 0 0 0 0 0 0 0 0 0 0 0 0 0 3 16 23 19 10 10 13
61 65 77 100 100 100 100 97 97 94 84 68 58 65 65 39 32 16 13 10 0 0 0 0 0 0 0 0 0 0 0 0 0 0 0 0 0 0 3 3 3 6 6
55 48 74 97 100 97 97 97 84 77 71 68 58 58 58 58 35 23 10 3 0 0 0 0 0 0 0 0 0 0 0 0 0 0 0 0 0 0 0 0 0 0 0
42 52 71 94 94 97 90 87 74 68 55 52 48 42 42 35 29 16 0 3 3 0 0 0 0 0 0 0 0 0 0 0 0 0 0 0 0 0 0 0 0 0 0
45 58 65 87 94 90 87 81 68 58 42 35 29 29 26 19 13 10 10 0 0 0 0 0 0 0 0 0 0 0 0 0 0 0 0 0 0 0 0 0 0 0 0
55 52 77 84 84 90 87 68 58 39 26 16 13 10 13 13 6 6 0 0 0 0 0 0 0 0 0 0 0 0 0 0 0 0 0 0 0 0 0 0 0 0 0
58 68 81 81 81 81 68 58 39 29 16 10 6 3 3 3 3 0 0 0 0 0 0 0 0 0 0 0 0 0 0 0 0 0 0 0 0 0 0 0 0 0 0
45 52 68 74 71 68 61 52 45 29 19 13 3 0 0 0 0 0 0 0 0 0 0 0 0 0 0 0 0 0 0 0 0 0 0 0 0 0 0 0 0 0 0
32 35 58 52 48 39 42 35 23 19 13 0 0 0 0 0 0 0 0 0 0 0 0 0 0 0 0 0 0 0 0 0 0 0 0 0 0 0 0 0 0 0 0
6 10 13 16 13 16 13 16 16 10 3 0 0 0 0 0 0 0 0 0 0 0 0 0 0 0 0 0 0 0 0 0 0 0 0 0 0 0 0 0 0 0 0
Height
5906 5906 5907 5907 5908 5909 5909 5910 5910 5911 5911 5912 5912 5912 5912 5912 5912 5912 5911 5911 5910 5910 5909 5908 5907 5907 5906 5905 5905 5904 5904 5904 5904 5903 5903 5902 5902 5901 5901 5901 5901 5901 5901
5905 5905 5905 5906 5907 5907 5908 5909 5910 5910 5910 5911 5911 5911 5911 5911 5911 5910 5910 5909 5909 5908 5907 5907 5906 5905 5905 5904 5904 5903 5902 5902 5902 5902 5901 5901 5900 5900 5899 5899 5899 5899 5899
5903 5903 5903 5904 5905 5906 5907 5908 5908 5909 5909 5910 5910 5910 5910 5910 5910 5909 5909 5908 5908 5907 5906 5906 5905 5904 5904 5903 5903 5902 5901 5901 5900 5900 5899 5899 5898 5898 5897 5897 5897 5897 5897
5901 5901 5902 5903 5904 5905 5906 5907 5907 5908 5908 5908 5909 5909 5909 5909 5909 5908 5908 5907 5907 5906 5906 5905 5904 5903 5903 5902 5901 5901 5900 5899 5899 5898 5898 5897 5896 5896 5895 5895 5895 5895 5894
5899 5900 5901 5902 5903 5904 5905 5906 5906 5907 5907 5908 5908 5908 5908 5908 5908 5908 5907 5907 5906 5906 5905 5904 5903 5902 5901 5901 5900 5899 5898 5898 5897 5897 5896 5895 5894 5894 5893 5893 5893 5893 5892
5898 5899 5900 5901 5902 5903 5904 5905 5906 5906 5907 5907 5907 5908 5908 5908 5907 5907 5907 5906 5906 5905 5904 5904 5903 5901 5900 5899 5898 5897 5896 5896 5896 5895 5894 5893 5893 5892 5891 5891 5891 5891 5890
5897 5899 5900 5901 5902 5903 5904 5904 5905 5906 5906 5907 5907 5907 5907 5907 5907 5906 5906 5905 5905 5904 5903 5903 5902 5900 5899 5897 5896 5895 5894 5895 5894 5893 5892 5892 5891 5890 5890 5890 5889 5889 5888
5897 5898 5899 5900 5901 5903 5904 5904 5905 5906 5906 5906 5906 5907 5906 5906 5906 5905 5905 5904 5904 5903 5902 5901 5900 5898 5897 5895 5893 5892 5892 5893 5892 5891 5890 5889 5889 5888 5887 5887 5887 5886 5886
5897 5898 5899 5901 5902 5903 5904 5904 5905 5905 5906 5906 5906 5906 5906 5905 5905 5904 5904 5903 5902 5901 5900 5899 5898 5896 5894 5892 5891 5889 5889 5890 5890 5888 5887 5886 5886 5886 5885 5885 5884 5884 5883
5897 5898 5900 5901 5902 5903 5904 5904 5904 5905 5905 5905 5905 5905 5905 5904 5904 5903 5903 5902 5901 5899 5898 5897 5895 5893 5892 5890 5888 5886 5887 5887 5887 5886 5884 5884 5883 5882 5882 5882 5881 5881 5881
5898 5899 5900 5901 5902 5903 5904 5904 5904 5904 5904 5904 5904 5904 5904 5903 5903 5902 5901 5900 5899 5897 5895 5894 5892 5890 5888 5886 5885 5884 5884 5884 5883 5882 5881 5880 5880 5879 5879 5878 5878 5878 5878
5898 5899 5900 5901 5902 5903 5903 5903 5903 5904 5904 5904 5903 5903 5903 5902 5901 5900 5900 5898 5896 5895 5892 5890 5889 5887 5885 5882 5881 5880 5880 5880 5879 5878 5878 5877 5876 5875 5875 5875 5874 5874 5874
5897 5899 5900 5901 5902 5902 5902 5902 5902 5903 5903 5902 5902 5902 5901 5900 5899 5899 5898 5896 5894 5892 5890 5887 5885 5883 5881 5878 5877 5876 5875 5875 5874 5874 5873 5873 5872 5871 5871 5870 5870 5870 5870
5896 5897 5898 5900 5900 5901 5901 5901 5901 5901 5901 5901 5901 5900 5899 5898 5897 5896 5895 5894 5892 5889 5887 5884 5882 5879 5877 5874 5872 5871 5870 5869 5869 5868 5868 5867 5867 5866 5866 5865 5865 5865 5865
5894 5895 5897 5898 5899 5899 5899 5899 5899 5899 5899 5899 5899 5898 5897 5897 5896 5894 5893 5891 5889 5886 5884 5881 5878 5876 5873 5870 5868 5866 5865 5864 5863 5862 5862 5862 5861 5861 5860 5859 5859 5859 5859
5892 5894 5894 5895 5896 5897 5897 5897 5897 5897 5897 5896 5896 5896 5895 5894 5893 5892 5890 5888 5886 5884 5881 5878 5875 5873 5870 5867 5865 5862 5861 5859 5858 5856 5856 5855 5855 5854 5854 5853 5853 5853 5852
5890 5891 5892 5893 5893 5894 5894 5894 5894 5894 5893 5893 5893 5892 5891 5891 5890 5889 5887 5885 5883 5881 5878 5876 5873 5870 5868 5865 5862 5859 5857 5855 5853 5851 5850 5849 5849 5848 5847 5846 5846 5845 5844
5887 5888 5889 5890 5891 5891 5891 5891 5891 5891 5890 5890 5889 5888 5887 5886 5885 5884 5882 5881 5879 5877 5875 5872 5870 5867 5865 5862 5859 5856 5853 5851 5849 5847 5845 5843 5842 5841 5840 5839 5838 5837 5836
5883 5884 5886 5887 5887 5887 5887 5888 5887 5887 5886 5886 5885 5884 5883 5881 5880 5878 5877 5875 5873 5871 5870 5868 5866 5863 5861 5858 5855 5852 5849 5847 5844 5842 5840 5838 5837 5835 5834 5832 5830 5829 5828
5878 5880 5882 5883 5882 5882 5882 5882 5882 5881 5881 5881 5879 5878 5877 5875 5873 5872 5871 5869 5867 5866 5864 5862 5860 5858 5856 5854 5851 5849 5846 5843 5840 5837 5835 5833 5831 5829 5827 5825 5823 5821 5820
5873 5874 5876 5877 5877 5877 5876 5875 5875 5874 5874 5873 5872 5871 5869 5868 5866 5865 5864 5863 5861 5859 5857 5856 5854 5852 5850 5848 5846 5844 5842 5839 5836 5833 5830 5827 5825 5822 5820 5818 5816 5813 5811
5869 5870 5871 5872 5872 5871 5870 5869 5868 5867 5866 5865 5864 5863 5861 5859 5858 5857 5856 5855 5853 5852 5850 5849 5847 5846 5844 5842 5840 5838 5836 5834 5831 5827 5824 5821 5818 5815 5812 5810 5807 5805 5802
5865 5866 5866 5867 5865 5864 5864 5862 5861 5860 5858 5857 5856 5855 5853 5852 5851 5849 5848 5847 5845 5844 5843 5841 5840 5838 5836 5835 5833 5831 5829 5827 5824 5821 5817 5814 5811 5807 5804 5801 5798 5794 5791
5859 5860 5861 5861 5860 5859 5858 5856 5854 5853 5851 5849 5848 5846 5845 5843 5841 5840 5838 5838 5837 5836 5834 5833 5831 5830 5828 5826 5824 5822 5820 5818 5815 5812 5809 5805 5801 5797 5793 5790 5786 5783 5779
5852 5852 5853 5853 5852 5851 5850 5848 5847 5845 5843 5841 5840 5838 5836 5834 5832 5832 5830 5829 5828 5826 5825 5824 5822 5821 5819 5817 5815 5812 5810 5807 5804 5802 5798 5794 5790 5785 5781 5777 5773 5769 5765
5844 5845 5845 5845 5844 5843 5842 5840 5838 5836 5834 5832 5831 5830 5828 5826 5825 5823 5821 5820 5819 5817 5815 5814 5813 5811 5809 5806 5804 5801 5799 5796 5793 5790 5786 5782 5778 5773 5767 5763 5758 5754 5750
Wind_Speed
9 9 10 10 11 12 12 12 12 12 12 11 11 11 12 12 13 14 15 16 16 16 16 16 16 15 15 15 14 14 14 13 13 12 11 11 11 11 11 10 10 10 10
11 10 10 11 11 12 12 12 12 13 13 13 13 13 13 13 14 15 15 16 16 15 15 15 15 15 15 15 15 15 15 14 13 12 12 12 12 12 12 12 12 12 12
11 10 10 11 11 11 11 11 12 13 13 13 13 13 13 13 13 14 14 14 14 14 14 14 15 15 15 15 15 15 15 14 14 13 13 13 13 12 13 13 13 13 13
10 9 9 9 10 10 10 10 11 12 12 12 12 11 11 11 11 12 12 12 13 13 13 13 14 14 15 15 15 15 15 14 14 14 13 13 13 13 14 14 14 14 13
8 8 8 8 8 9 9 9 10 10 10 10 9 9 9 9 10 10 11 11 11 12 12 12 13 14 14 15 15 15 15 15 14 14 13 14 14 14 15 14 14 14 13
6 6 7 7 7 8 8 9 9 8 8 7 6 6 6 7 8 8 9 10 10 11 11 12 12 13 14 15 15 15 15 15 15 15 15 15 15 16 15 14 14 14 14
6 6 6 6 6 6 6 6 6 5 4 3 3 3 4 4 6 7 8 8 9 10 11 11 12 13 14 15 16 16 16 15 15 16 16 17 17 16 15 15 16 15 15
5 5 4 4 4 4 4 3 2 2 1 0 1 1 2 3 4 5 6 7 8 9 10 11 12 12 14 15 16 17 17 15 15 17 17 18 17 17 17 17 17 16 16
4 4 4 4 3 3 3 3 3 3 3 3 3 3 3 3 3 4 5 6 7 8 9 10 11 13 14 15 17 18 17 15 15 16 17 17 17 17 17 18 18 17 17
4 4 4 4 4 5 5 5 6 6 5 5 4 3 3 2 3 3 5 6 7 9 10 11 12 14 15 16 17 18 17 16 15 16 16 16 17 17 17 17 18 18 18
4 4 5 5 6 6 6 7 7 7 6 5 4 3 2 2 2 3 4 6 8 10 10 11 12 14 15 17 18 19 18 17 17 16 16 16 16 17 17 18 18 18 18
5 6 5 5 6 5 6 6 6 6 5 4 3 3 2 2 3 4 5 7 9 11 11 12 13 14 16 18 20 20 19 18 18 17 17 17 17 17 18 18 18 18 19
7 6 5 4 4 4 5 5 5 5 5 4 3 3 3 3 4 5 7 9 11 12 13 14 15 16 17 19 21 21 20 20 19 19 19 19 19 19 19 19 19 19 20
7 6 5 3 3 3 3 4 3 3 3 3 3 3 3 4 5 6 7 9 11 13 14 15 15 16 18 20 21 21 21 20 20 20 20 21 22 22 21 21 21 22 22
9 7 5 3 2 1 1 1 1 2 3 3 3 3 3 4 5 6 8 10 12 13 14 15 15 16 18 19 20 21 22 21 21 21 23 24 24 25 25 25 25 25 26
10 8 5 4 3 3 3 3 3 4 4 4 4 5 5 5 6 8 10 11 12 13 15 15 16 17 17 18 19 20 21 21 20 21 23 25 26 27 27 27 28 29 30
12 10 8 6 5 5 5 6 7 7 7 8 7 8 9 9 10 11 12 13 13 14 15 15 15 16 17 18 18 19 19 19 20 20 22 25 27 28 29 31 31 31 33
12 11 10 9 7 7 8 9 10 10 10 11 12 12 13 14 14 14 15 16 16 17 17 17 16 16 17 17 18 19 20 20 19 20 21 24 26 29 30 31 33 34 34
13 14 12 12 10 11 12 13 13 14 14 15 16 15 17 18 18 18 19 19 20 20 20 20 19 19 19 19 19 20 20 21 22 22 23 24 26 28 30 32 34 35 37
15 14 14 14 14 15 16 17 18 19 20 20 21 21 21 22 22 22 23 24 25 25 24 23 22 21 21 21 21 21 21 22 23 24 25 26 27 28 29 31 33 35 37
19 17 17 18 17 18 20 22 24 25 25 26 26 26 26 27 27 26 27 28 28 29 28 26 25 24 23 23 23 24 24 25 25 26 26 28 30 31 32 33 34 36 38
21 19 20 20 21 22 24 26 28 30 30 31 31 31 31 31 31 31 31 31 31 31 30 28 27 27 27 26 26 27 27 28 28 29 30 31 33 34 36 37 39 40 41
24 23 23 23 24 26 28 30 32 33 35 35 35 34 34 35 35 35 34 34 33 33 31 30 30 29 29 29 30 31 31 31 32 33 35 36 37 39 40 42 43 45 46
28 29 29 29 30 31 33 35 36 37 37 37 38 38 37 38 38 37 37 36 35 34 34 33 32 32 32 32 33 35 36 36 37 38 39 41 43 44 46 47 49 50 52
32 33 33 34 34 35 37 38 39 39 40 40 39 40 40 40 38 39 38 37 37 37 35 34 34 35 35 36 37 39 40 41 42 43 44 46 48 50 51 53 54 56 58
36 36 37 38 38 39 40 40 41 40 41 40 40 40 41 40 40 40 40 39 38 37 36 36 38 39 39 40 41 42 44 45 46 48 49 51 53 55 56 58 60 61 62
Wind_Direction
270 264 253 245 241 237 236 239 244 248 252 255 260 266 272 279 285 288 289 289 287 286 285 285 284 284 283 282 280 280 279 277 274 271 267 264 260 256 254 252 252 252 253
271 262 253 247 242 240 238 240 244 250 253 257 261 267 272 278 284 286 288 288 288 287 286 286 286 287 286 285 284 284 283 282 280 275 270 267 264 262 260 257 256 257 259
267 257 249 243 240 239 239 241 246 251 255 260 264 268 273 278 282 286 287 288 289 289 290 290 290 291 291 290 289 289 287 286 284 280 277 273 268 266 264 261 259 259 260
259 251 243 237 237 236 238 242 247 251 255 258 262 267 273 279 284 288 290 291 292 293 294 295 296 297 296 295 294 293 291 291 288 286 283 278 272 267 264 262 261 260 260
246 241 234 231 232 234 237 243 247 250 252 256 260 267 275 282 288 291 293 295 297 298 298 299 300 300 299 298 297 296 294 294 293 290 286 281 274 271 268 263 262 261 260
232 228 228 228 229 233 237 241 244 246 249 253 260 269 280 290 296 299 301 302 303 303 302 302 302 302 301 300 298 296 294 294 294 290 286 282 280 277 270 265 263 262 261
221 221 223 223 223 226 227 229 233 236 239 247 264 282 296 305 309 311 311 311 312 312 312 310 309 307 305 302 298 294 292 293 293 289 286 282 282 278 270 268 266 264 261
207 204 202 202 203 203 201 198 190 178 171 138 5 352 345 340 335 330 326 323 323 323 321 318 314 311 307 303 299 295 294 295 293 288 285 282 281 277 272 269 268 266 263
185 176 168 162 157 149 140 130 115 98 84 75 65 51 36 20 3 349 340 335 332 330 325 321 317 314 309 304 301 299 300 301 296 290 288 285 282 281 276 273 270 267 264
174 164 153 139 127 118 109 100 95 88 81 77 73 68 56 34 11 358 348 338 331 327 322 319 318 317 312 307 303 302 303 304 300 295 291 286 282 279 276 273 270 268 264
157 150 144 127 114 105 95 88 86 85 81 78 74 67 53 32 18 2 347 336 332 328 323 318 316 315 312 307 303 304 305 303 300 296 292 286 280 277 276 275 272 269 266
157 142 134 122 111 101 91 85 82 80 77 76 71 58 43 22 1 344 341 337 334 331 325 318 313 311 310 305 302 303 302 298 293 292 290 285 280 277 275 273 271 269 267
166 151 140 129 109 95 86 83 79 74 69 60 50 38 20 358 348 346 347 345 339 333 327 320 312 308 306 304 302 299 297 296 290 285 284 282 279 277 275 272 269 268 267
179 166 159 148 131 102 81 75 68 54 46 39 31 21 5 354 351 349 347 342 337 336 332 327 319 311 309 306 304 300 295 292 286 279 277 277 276 274 272 270 269 267 267
198 188 177 177 178 148 76 42 21 352 348 357 355 345 342 336 338 337 338 335 335 337 336 333 327 321 317 314 311 307 299 291 283 276 272 271 271 271 271 269 268 267 267
203 208 205 213 246 265 283 306 312 311 317 324 328 323 315 317 314 318 321 327 331 335 337 336 333 330 324 320 316 313 307 296 287 280 276 273 270 269 269 269 269 268 268
210 213 226 233 250 271 285 293 297 302 306 308 307 307 304 302 302 309 314 318 323 329 332 331 329 327 324 322 319 316 311 303 291 285 282 279 275 273 271 270 269 269 269
223 219 226 234 247 266 280 285 290 294 298 298 298 298 297 297 298 302 306 310 314 318 323 323 322 322 319 319 318 317 313 308 300 292 287 282 278 276 274 272 271 270 270
236 229 230 240 250 262 272 279 285 289 291 292 291 293 292 293 295 298 300 304 308 312 315 316 316 314 313 312 313 313 311 309 305 298 294 289 283 279 276 274 273 272 272
245 244 242 253 261 268 275 282 286 288 290 290 288 289 290 290 290 293 296 300 304 307 308 310 310 308 307 306 306 306 305 304 303 298 295 293 291 286 283 279 275 275 274
255 254 257 259 266 273 280 284 287 289 290 290 288 286 287 288 288 290 293 296 298 300 300 302 304 303 302 300 298 299 299 299 299 297 294 293 292 290 288 285 281 278 277
265 266 268 267 269 273 279 283 286 288 290 290 291 288 286 287 286 287 289 290 293 295 296 299 300 299 298 296 294 294 294 295 294 292 291 290 289 289 288 286 284 283 282
270 271 273 272 274 274 278 281 283 286 288 288 290 289 287 286 285 285 284 287 290 292 295 297 299 297 295 293 291 291 291 290 289 289 288 287 287 287 287 286 285 284 282
271 274 276 277 275 276 277 278 280 283 284 284 286 286 286 285 283 283 283 287 288 289 293 295 295 295 294 291 289 288 289 289 288 288 287 287 286 286 285 284 283 282 281
271 274 276 277 275 274 276 277 279 280 281 281 282 283 284 283 284 286 288 288 286 290 292 292 292 292 291 290 289 288 288 288 287 286 286 286 286 286 285 284 283 282 281
271 273 274 275 275 275 276 277 277 279 280 281 282 281 282 283 284 286 287 288 289 291 291 291 291 291 291 290 290 288 287 287 287 287 286 285 285 285 284 284 283 283 282